CW7410 Weather Reports


Display with metric or nautical units.
time (UTC)temp
F
wind
direction
speed
MPH
gust
MPH
rain 1hr
in
rain 24hr
in
rain mn
in
humidity
%
barometer
mb
20260507003541 66 153 3.0 8.0 0.00 0.00 0.00 28 1018.6
20260507003053 66 200 2.0 7.0 0.00 0.00 0.00 28 1018.6
20260507002538 66 220 3.0 8.0 0.00 0.00 0.00 28 1018.6
20260507002038 65 257 1.0 8.0 0.00 0.00 0.00 27 1018.6
20260507001555 65 234 5.0 10.0 0.00 0.00 0.00 29 1018.6
20260507001037 65 214 5.0 10.0 0.00 0.00 0.00 28 1018.6
20260507000541 65 195 4.0 9.0 0.00 0.00 0.00 29 1018.6
20260507000052 65 222 3.0 13.0 0.00 0.00 0.00 28 1018.6
20260506235537 65 238 4.0 13.0 0.00 0.00 0.00 28 1018.6
20260506235038 65 213 8.0 13.0 0.00 0.00 0.00 29 1018.6
20260506234552 65 240 4.0 12.0 0.00 0.00 0.00 29 1018.6
20260506234038 65 235 5.0 12.0 0.00 0.00 0.00 30 1018.5
20260506233539 64 272 3.0 10.0 0.00 0.00 0.00 29 1018.6
20260506233108 64 164 2.0 10.0 0.00 0.00 0.00 30 1018.5
20260506232540 64 296 4.0 14.0 0.00 0.00 0.00 29 1018.5
20260506232040 64 336 7.0 14.0 0.00 0.00 0.00 30 1018.6
20260506231550 65 261 7.0 13.0 0.00 0.00 0.00 29 1018.5
20260506231038 64 189 7.0 13.0 0.00 0.00 0.00 29 1018.5
20260506230540 64 244 7.0 14.0 0.00 0.00 0.00 29 1018.6
20260506230056 64 272 5.0 14.0 0.00 0.00 0.00 28 1018.5
20260506225539 64 279 7.0 14.0 0.00 0.00 0.00 28 1018.7
20260506225040 64 277 8.0 16.0 0.00 0.00 0.00 29 1018.5
20260506224548 64 290 6.0 16.0 0.00 0.00 0.00 30 1018.7
20260506224037 64 360 9.0 16.0 0.00 0.00 0.00 29 1018.7
20260506223540 64 360 4.0 15.0 0.00 0.00 0.00 28 1018.8
20260506223047 64 360 8.0 15.0 0.00 0.00 0.00 30 1018.7
20260506222540 64 322 5.0 14.0 0.00 0.00 0.00 30 1018.7
20260506222041 63 311 4.0 14.0 0.00 0.00 0.00 30 1018.9
20260506221548 63 329 7.0 16.0 0.00 0.00 0.00 29 1018.9
20260506221038 63 309 5.0 16.0 0.00 0.00 0.00 31 1018.9
20260506220539 63 261 6.0 19.0 0.00 0.00 0.00 31 1018.9
20260506220054 63 295 6.0 19.0 0.00 0.00 0.00 30 1018.9
20260506215542 63 277 14.0 19.0 0.00 0.00 0.00 30 1019.1
20260506215038 63 243 8.0 19.0 0.00 0.00 0.00 31 1019.2
20260506214550 63 253 8.0 19.0 0.00 0.00 0.00 31 1019.2
20260506214038 63 231 7.0 20.0 0.00 0.00 0.00 31 1019.2
20260506213537 63 250 10.0 21.0 0.00 0.00 0.00 31 1019.3
20260506213111 63 250 11.0 21.0 0.00 0.00 0.00 31 1019.2
20260506212540 63 249 10.0 21.0 0.00 0.00 0.00 31 1019.3
20260506212038 64 269 11.0 21.0 0.00 0.00 0.00 30 1019.3
20260506211549 64 273 10.0 19.0 0.00 0.00 0.00 31 1019.2
20260506211038 64 270 9.0 19.0 0.00 0.00 0.00 31 1019.2
20260506210538 63 307 9.0 20.0 0.00 0.00 0.00 29 1019.2
20260506210056 63 328 11.0 21.0 0.00 0.00 0.00 28 1019.2
20260506205543 64 319 12.0 21.0 0.00 0.00 0.00 28 1019.2
20260506205039 64 360 11.0 16.0 0.00 0.00 0.00 29 1019.1
20260506204551 63 299 10.0 16.0 0.00 0.00 0.00 30 1019.0
20260506204041 63 360 9.0 16.0 0.00 0.00 0.00 32 1019.1
20260506203538 62 293 3.0 21.0 0.00 0.00 0.00 32 1019.0
20260506203050 62 258 4.0 21.0 0.00 0.00 0.00 29 1019.1
20260506202541 62 306 11.0 21.0 0.00 0.00 0.00 30 1019.1
20260506202040 62 320 9.0 22.0 0.00 0.00 0.00 31 1019.1
20260506201546 62 302 12.0 22.0 0.00 0.00 0.00 29 1019.0
20260506201039 62 355 11.0 24.0 0.00 0.00 0.00 29 1019.0
20260506200539 62 310 12.0 24.0 0.00 0.00 0.00 30 1019.2
20260506200052 62 327 12.0 24.0 0.00 0.00 0.00 30 1019.1
20260506195540 62 317 11.0 23.0 0.00 0.00 0.00 30 1019.2
20260506195038 62 298 15.0 23.0 0.00 0.00 0.00 30 1019.2
20260506194604 61 328 14.0 22.0 0.00 0.00 0.00 30 1019.0
20260506194038 61 333 10.0 17.0 0.00 0.00 0.00 32 1019.0
20260506193538 61 5 6.0 17.0 0.00 0.00 0.00 31 1018.9
20260506193050 60 15 9.0 17.0 0.00 0.00 0.00 32 1019.0
20260506192538 60 339 6.0 17.0 0.00 0.00 0.00 33 1019.0
20260506192038 60 5 11.0 17.0 0.00 0.00 0.00 34 1019.2
20260506191551 60 10 9.0 17.0 0.00 0.00 0.00 32 1019.1
20260506191040 60 345 9.0 15.0 0.00 0.00 0.00 29 1019.2
20260506190540 59 317 7.0 11.0 0.00 0.00 0.00 31 1019.1
20260506190051 59 280 2.0 13.0 0.00 0.00 0.00 30 1019.1
20260506185539 59 321 4.0 13.0 0.00 0.00 0.00 30 1019.2
20260506185038 58 288 6.0 13.0 0.00 0.00 0.00 32 1019.2
20260506184553 58 304 3.0 13.0 0.00 0.00 0.00 31 1019.3
20260506184038 58 345 6.0 13.0 0.00 0.00 0.00 32 1019.4
20260506183539 58 355 4.0 13.0 0.00 0.00 0.00 34 1019.4
20260506183053 57 347 6.0 13.0 0.00 0.00 0.00 34 1019.3
20260506182537 57 22 9.0 13.0 0.00 0.00 0.00 34 1019.4
20260506182041 57 28 3.0 13.0 0.00 0.00 0.00 34 1019.4
20260506181552 57 283 8.0 15.0 0.00 0.00 0.00 33 1019.4
20260506181038 57 302 7.0 15.0 0.00 0.00 0.00 32 1019.5
20260506180540 56 303 7.0 14.0 0.00 0.00 0.00 33 1019.5
20260506180059 56 360 6.0 16.0 0.00 0.00 0.00 35 1019.4
20260506175540 56 22 8.0 16.0 0.00 0.00 0.00 34 1019.5
20260506175039 56 315 10.0 16.0 0.00 0.00 0.00 38 1019.5
20260506174550 56 11 6.0 14.0 0.00 0.00 0.00 34 1019.5
20260506174042 56 351 9.0 14.0 0.00 0.00 0.00 35 1019.5
20260506173540 55 329 9.0 14.0 0.00 0.00 0.00 35 1019.4
20260506173056 55 360 7.0 12.0 0.00 0.00 0.00 33 1019.5
20260506172539 55 342 6.0 15.0 0.00 0.00 0.00 34 1019.4
20260506172039 55 25 6.0 15.0 0.00 0.00 0.00 35 1019.4
20260506171556 54 360 8.0 16.0 0.00 0.00 0.00 35 1019.4
20260506171038 54 360 5.0 16.0 0.00 0.00 0.00 37 1019.2
20260506170538 54 360 8.0 19.0 0.00 0.00 0.00 37 1019.2
20260506170105 54 11 7.0 19.0 0.00 0.00 0.00 36 1019.1
20260506165539 54 360 11.0 19.0 0.00 0.00 0.00 35 1019.1
20260506165039 53 303 8.0 13.0 0.00 0.00 0.00 39 1019.0
20260506164548 53 307 5.0 15.0 0.00 0.00 0.00 40 1019.0
20260506164040 52 13 7.0 15.0 0.00 0.00 0.00 40 1019.1
20260506163542 52 303 8.0 15.0 0.00 0.00 0.00 40 1019.1
20260506163110 52 42 4.0 15.0 0.00 0.00 0.00 41 1019.0
20260506162542 52 16 9.0 15.0 0.00 0.00 0.00 42 1019.1
20260506162044 51 15 8.0 14.0 0.00 0.00 0.00 42 1019.0
20260506161551 51 310 9.0 14.0 0.00 0.00 0.00 43 1018.9
20260506161042 51 59 7.0 14.0 0.00 0.00 0.00 43 1018.9
20260506160539 51 13 7.0 14.0 0.00 0.00 0.00 41 1018.9
20260506160055 51 19 9.0 15.0 0.00 0.00 0.00 42 1018.8
20260506155541 51 27 9.0 15.0 0.00 0.00 0.00 45 1018.9
20260506155039 50 338 8.0 15.0 0.00 0.00 0.00 43 1018.8
20260506154610 50 355 5.0 12.0 0.00 0.00 0.00 47 1018.7
20260506154039 50 28 8.0 15.0 0.00 0.00 0.00 48 1018.7
20260506153539 50 37 8.0 15.0 0.00 0.00 0.00 47 1018.6
20260506153059 50 19 10.0 15.0 0.00 0.00 0.00 49 1018.6
20260506152537 49 28 7.0 15.0 0.00 0.00 0.00 50 1018.6
20260506152038 49 360 9.0 15.0 0.00 0.00 0.00 49 1018.4
20260506151558 49 360 12.0 15.0 0.00 0.00 0.00 50 1018.4
20260506151039 49 360 8.0 13.0 0.00 0.00 0.00 48 1018.3
20260506150539 49 360 6.0 11.0 0.00 0.00 0.00 49 1018.3
20260506150051 49 360 6.0 11.0 0.00 0.00 0.00 49 1018.3
20260506145540 49 360 8.0 11.0 0.00 0.00 0.00 50 1018.3
20260506145038 49 360 6.0 11.0 0.00 0.00 0.00 51 1018.1
20260506144552 49 360 6.0 11.0 0.00 0.00 0.00 52 1018.1
20260506144039 48 360 4.0 9.0 0.00 0.00 0.00 53 1018.0
20260506143541 48 360 4.0 9.0 0.00 0.00 0.00 53 1017.9
20260506143101 48 360 3.0 8.0 0.00 0.00 0.00 52 1017.9
20260506142541 48 360 3.0 9.0 0.00 0.00 0.00 53 1017.9
20260506142039 48 360 4.0 9.0 0.00 0.00 0.00 54 1017.8
20260506141553 48 360 5.0 8.0 0.00 0.00 0.00 54 1017.7
20260506141041 48 360 2.0 5.0 0.00 0.00 0.00 53 1017.7
20260506140540 47 32 2.0 5.0 0.00 0.00 0.00 54 1017.8
20260506140058 46 55 2.0 4.0 0.00 0.00 0.00 56 1017.7
20260506135540 46 0 0.0 3.0 0.00 0.00 0.00 58 1017.6
20260506135038 45 0 0.0 3.0 0.00 0.00 0.00 61 1017.5
20260506134556 44 0 0.0 0.0 0.00 0.00 0.00 62 1017.4
20260506134039 44 0 0.0 1.0 0.00 0.00 0.00 63 1017.3
20260506133540 43 0 0.0 4.0 0.00 0.00 0.00 62 1017.3
20260506133050 42 0 0.0 4.0 0.00 0.00 0.00 62 1017.0
20260506132539 42 0 1.0 4.0 0.00 0.00 0.00 62 1017.1
20260506132039 41 360 1.0 4.0 0.00 0.00 0.00 62 1017.0
20260506131547 41 287 3.0 4.0 0.00 0.00 0.00 62 1017.0
20260506131039 41 286 1.0 5.0 0.00 0.00 0.00 62 1016.9
20260506130539 41 0 1.0 5.0 0.00 0.00 0.00 62 1016.7
20260506130048 41 308 3.0 5.0 0.00 0.00 0.00 61 1016.7
20260506125542 41 279 2.0 4.0 0.00 0.00 0.00 60 1016.6
20260506125042 41 286 0.0 2.0 0.00 0.00 0.00 60 1016.5
20260506124552 41 0 0.0 2.0 0.00 0.00 0.00 60 1016.4
20260506124039 41 0 0.0 3.0 0.00 0.00 0.00 59 1016.2
20260506123539 41 0 0.0 4.0 0.00 0.00 0.00 59 1016.0
20260506123052 41 297 1.0 4.0 0.00 0.00 0.00 59 1016.0
20260506122540 41 0 2.0 4.0 0.00 0.00 0.00 58 1016.0
20260506122039 41 288 2.0 7.0 0.00 0.00 0.00 58 1016.0
20260506121551 42 336 2.0 7.0 0.00 0.00 0.00 58 1015.8
20260506121039 42 9 3.0 8.0 0.00 0.00 0.00 58 1015.6
20260506120539 42 9 3.0 10.0 0.00 0.00 0.00 58 1015.7
20260506120100 42 16 4.0 10.0 0.00 0.00 0.00 58 1015.5
20260506115539 42 56 5.0 10.0 0.00 0.00 0.00 58 1015.3
20260506115039 42 37 4.0 8.0 0.00 0.00 0.00 58 1015.4
20260506114604 43 14 5.0 9.0 0.00 0.00 0.00 57 1015.3
20260506114037 43 27 4.0 9.0 0.00 0.00 0.00 57 1015.4
20260506113539 43 5 5.0 9.0 0.00 0.00 0.00 56 1015.4
20260506113055 44 17 6.0 10.0 0.00 0.00 0.00 56 1015.3
20260506112537 44 39 4.0 10.0 0.00 0.00 0.00 57 1015.3
20260506112038 44 49 4.0 10.0 0.00 0.00 0.00 57 1015.2
20260506111548 45 24 4.0 9.0 0.00 0.00 0.00 57 1015.1
20260506111037 45 352 2.0 9.0 0.00 0.00 0.00 57 1015.2
20260506110538 45 352 4.0 9.0 0.00 0.00 0.00 57 1015.1
20260506110059 45 26 2.0 10.0 0.00 0.00 0.00 57 1014.9
20260506105539 45 53 6.0 12.0 0.00 0.00 0.00 58 1014.9
20260506105038 45 46 5.0 12.0 0.00 0.00 0.00 59 1014.9
20260506104546 45 150 5.0 12.0 0.00 0.00 0.00 60 1014.7
20260506104038 45 109 5.0 11.0 0.00 0.00 0.00 60 1014.9
20260506103536 44 43 4.0 11.0 0.00 0.00 0.00 60 1014.7
20260506103047 44 104 3.0 11.0 0.00 0.00 0.00 61 1014.5
20260506102539 44 70 5.0 12.0 0.00 0.00 0.00 61 1014.6
20260506102038 44 79 4.0 19.0 0.00 0.00 0.00 61 1014.4
20260506101601 44 85 6.0 19.0 0.00 0.00 0.00 61 1014.3
20260506101042 44 100 11.0 19.0 0.00 0.00 0.00 61 1014.1
20260506100539 44 61 6.0 22.0 0.00 0.00 0.00 63 1014.2
20260506100051 44 62 14.0 24.0 0.00 0.00 0.00 63 1014.0
20260506095543 44 46 15.0 29.0 0.00 0.00 0.00 63 1013.9
20260506095039 44 54 13.0 29.0 0.00 0.00 0.00 63 1014.0
20260506094606 44 40 18.0 27.0 0.00 0.00 0.00 62 1013.8
20260506094038 44 47 15.0 24.0 0.00 0.00 0.00 62 1013.7
20260506093539 44 47 13.0 22.0 0.00 0.00 0.00 62 1013.6
20260506093054 44 46 16.0 24.0 0.00 0.00 0.00 62 1013.6
20260506092539 44 35 15.0 26.0 0.00 0.00 0.00 61 1013.4
20260506092038 45 41 16.0 29.0 0.00 0.00 0.00 60 1013.3
20260506091549 45 29 18.0 29.0 0.00 0.00 0.00 59 1013.2
20260506091039 45 40 16.0 29.0 0.00 0.00 0.00 59 1013.0
20260506090538 46 46 20.0 29.0 0.00 0.00 0.00 58 1012.8
20260506090051 46 37 14.0 27.0 0.00 0.00 0.00 59 1012.9
20260506085538 46 67 14.0 27.0 0.00 0.00 0.00 59 1012.7
20260506085039 46 42 14.0 27.0 0.00 0.00 0.00 59 1012.7
20260506084549 46 52 15.0 27.0 0.00 0.00 0.00 61 1012.9
20260506084041 46 22 13.0 22.0 0.00 0.00 0.00 62 1012.9
20260506083539 46 49 17.0 22.0 0.00 0.00 0.00 64 1012.7
20260506083048 46 49 11.0 22.0 0.00 0.00 0.00 66 1012.5
20260506082540 46 41 15.0 25.0 0.00 0.00 0.00 67 1012.2
20260506082038 46 42 14.0 25.0 0.00 0.00 0.00 69 1012.0
20260506081547 46 41 9.0 22.0 0.00 0.00 0.00 71 1012.1
20260506081039 46 61 10.0 22.0 0.00 0.00 0.00 72 1012.0
20260506080539 46 57 12.0 23.0 0.00 0.00 0.00 72 1011.8
20260506073050 51 360 11.0 19.0 0.00 0.00 0.00 72 1011.6
20260506072539 51 360 8.0 13.0 0.00 0.00 0.00 71 1011.6
20260506072037 51 360 4.0 6.0 0.00 0.00 0.00 70 1011.2
20260506071549 52 360 1.0 5.0 0.00 0.00 0.00 70 1011.1
20260506071038 52 360 2.0 6.0 0.00 0.00 0.00 69 1011.1
20260506070538 52 360 3.0 6.0 0.00 0.00 0.00 69 1010.8
20260506062038 52 360 4.0 10.0 0.00 0.00 0.00 67 1010.4
20260506061552 52 360 4.0 10.0 0.00 0.00 0.00 67 1010.4
20260506061037 53 360 5.0 10.0 0.00 0.00 0.00 67 1010.3
20260506060538 53 360 4.0 6.0 0.00 0.00 0.00 67 1010.3
20260506051038 53 360 0.0 4.0 0.00 0.00 0.00 65 1010.0
20260506050538 53 360 0.0 4.0 0.00 0.00 0.00 65 1009.8
20260506045037 53 0 0.0 2.0 0.00 0.00 0.00 65 1009.8
20260506044553 53 0 0.0 2.0 0.00 0.00 0.00 65 1009.8
20260506044043 53 0 0.0 4.0 0.00 0.00 0.00 64 1009.8
20260506043538 53 0 0.0 4.0 0.00 0.00 0.00 64 1009.8
20260506043049 53 360 1.0 6.0 0.00 0.00 0.00 64 1009.8
20260506042538 53 360 2.0 6.0 0.00 0.00 0.00 64 1009.7
20260506042037 54 360 2.0 6.0 0.00 0.00 0.00 64 1009.6
20260506041550 54 360 1.0 3.0 0.00 0.00 0.00 64 1009.6
20260506041038 54 0 0.0 5.0 0.00 0.00 0.00 63 1009.7
20260506040538 53 0 1.0 6.0 0.00 0.00 0.00 63 1009.6
20260506040101 54 360 2.0 8.0 0.00 0.00 0.00 62 1009.6
20260506035538 54 360 4.0 8.0 0.00 0.00 0.00 62 1009.5
20260506035038 53 360 3.0 6.0 0.00 0.00 0.00 61 1009.3
20260506034604 53 360 3.0 6.0 0.00 0.00 0.00 60 1009.3
20260506034039 53 360 2.0 4.0 0.00 0.00 0.00 59 1009.1
20260506033539 54 360 1.0 4.0 0.00 0.00 0.00 58 1009.1
20260506033050 54 0 1.0 3.0 0.00 0.00 0.00 58 1009.1
20260506032539 54 0 0.0 3.0 0.00 0.00 0.00 57 1009.2
20260506032039 54 0 0.0 3.0 0.00 0.00 0.00 56 1008.9
20260506031557 54 360 1.0 3.0 0.00 0.00 0.00 56 1008.8
20260506031041 55 0 0.0 4.0 0.00 0.00 0.00 55 1008.9
20260506030538 55 360 1.0 5.0 0.00 0.00 0.00 55 1008.8
20260506030048 55 360 2.0 5.0 0.00 0.00 0.00 55 1008.6
20260506025538 56 360 3.0 5.0 0.00 0.00 0.00 54 1008.5
20260506025038 56 360 4.0 5.0 0.00 0.00 0.00 54 1008.5
20260506024608 57 360 2.0 4.0 0.00 0.00 0.00 53 1008.5
20260506024038 57 360 2.0 5.0 0.00 0.00 0.00 52 1008.5
20260506023541 58 360 3.0 5.0 0.00 0.00 0.00 52 1008.4
20260506023050 58 360 3.0 5.0 0.00 0.00 0.00 52 1008.3
20260506022541 59 360 3.0 5.0 0.00 0.00 0.00 51 1008.2
20260506022039 59 360 2.0 5.0 0.00 0.00 0.00 50 1008.2
20260506021557 60 360 1.0 5.0 0.00 0.00 0.00 50 1008.2
20260506021037 60 0 1.0 8.0 0.00 0.00 0.00 49 1008.1
20260506020538 60 143 3.0 8.0 0.00 0.00 0.00 48 1008.1
20260506020049 61 167 3.0 9.0 0.00 0.00 0.00 47 1007.9
20260506015541 61 167 2.0 9.0 0.00 0.00 0.00 47 1008.0
20260506015041 61 138 3.0 9.0 0.00 0.00 0.00 46 1007.9
20260506014552 62 360 5.0 9.0 0.00 0.00 0.00 46 1007.9
20260506014039 62 360 3.0 9.0 0.00 0.00 0.00 47 1007.8
20260506013540 62 142 4.0 9.0 0.00 0.00 0.00 46 1007.8
20260506013051 63 145 5.0 12.0 0.00 0.00 0.00 45 1007.8
20260506012538 63 142 4.0 12.0 0.00 0.00 0.00 45 1007.8
20260506012038 63 360 6.0 12.0 0.00 0.00 0.00 44 1007.8
20260506011556 64 161 5.0 11.0 0.00 0.00 0.00 43 1007.7
20260506011038 64 360 5.0 11.0 0.00 0.00 0.00 43 1007.8
20260506010543 64 126 5.0 10.0 0.00 0.00 0.00 44 1007.7
20260506010056 65 169 4.0 11.0 0.00 0.00 0.00 44 1007.8
20260506005541 65 186 5.0 12.0 0.00 0.00 0.00 43 1007.8
20260506005038 65 200 5.0 12.0 0.00 0.00 0.00 42 1007.8
20260506004553 65 161 5.0 11.0 0.00 0.00 0.00 42 1007.8
20260506004038 65 190 5.0 10.0 0.00 0.00 0.00 43 1007.8